Location: Bois de la Silve
(44.4667°N, 6.7833°E)
Time: 04:39:51
(UTC+00:00)

Cosmos 841 Rocket - Pass Details

Date: 14 July 2020
Orbit: 747 x 772 km, 74.0° (Epoch: 06 August)

Event Time Altitude Azimuth Distance (km) Brightness Sun altitude
Rises 02:50:36 0° 341° (NNW) 3,208 7.1 -10.7°
Reaches altitude 10° 02:52:59 10° 344° (NNW) 2,282 6.4 -10.4°
Maximum altitude 02:58:08 66° 67° (ENE) 824 3.9 -9.8°
Drops below altitude 10° 03:03:17 10° 150° (SSE) 2,281 5.8 -9.1°
Sets 03:05:39 0° 153° (SSE) 3,206 6.6 -8.8°
